sat.trackr.live / text

‹ back to catalog

STARLINK-35417

NORAD 66335 · 2025-253S

PAYLOAD ACTIVE UNKNOWN

§ Identity

Operator
Country
US
Launch date
2025-11-06
Launch site
AFETR
Launch vehicle
Mass (kg)
RCS (m²)

Purposes: comms

External: N2YO · Heavens-Above · Gunter

§ Orbital elements

Epoch: 2026-05-25T01:23:58.091136Z

Period
94.27 min
Inclination
42.9985°
Eccentricity
0.0001121
Mean motion
15.27591224 rev/d
Perigee alt
482.2 km
Apogee alt
483.8 km
Semi-major
6,861.2 km
B*
5.9640e-4
RAAN
141.2509°
Arg perigee
231.3438°
Mean anomaly
128.7313°
Rev number
3,192

§ Raw data

STARLINK-354171 66335U 25253S   26145.05831124  .00016191  00000+0  59640-3 0  99962 66335  42.9985 141.2509 0001121 231.3438 128.7313 15.27591224 31921

JSON: /api/v1/satellites/66335 · /tle

For live sub-satellite position, see the globe view (requires WebGL).

§ Visibility from observer

Set your observer location to see the next 7 days of passes ≥ 10°. The values pass through the URL so the page stays shareable.

No JS? Fill the form by hand. The geolocation button needs JavaScript.